IW7DVM-13 Weather Reports


Display with metric or nautical units.
time (UTC)temp
F
wind
direction
speed
MPH
gust
MPH
rain 1hr
in
rain 24hr
in
rain mn
in
humidity
%
barometer
mb
20260509175003 65 157 0.0 2.0 0.00 0.00 0.00 72 1011.4
20260509174503 65 152 1.0 3.0 0.00 0.00 0.00 72 1011.2
20260509174003 65 162 1.0 3.0 0.00 0.00 0.00 72 1011.0
20260509173503 66 157 0.0 2.0 0.00 0.00 0.00 72 1011.0
20260509173003 66 140 1.0 2.0 0.00 0.00 0.00 72 1010.9
20260509172503 66 130 1.0 3.0 0.00 0.00 0.00 71 1010.8
20260509172003 66 135 1.0 3.0 0.00 0.00 0.00 71 1010.7
20260509171503 67 153 1.0 3.0 0.00 0.00 0.00 71 1010.7
20260509171003 67 152 1.0 2.0 0.00 0.00 0.00 71 1010.9
20260509170504 67 142 1.0 4.0 0.00 0.00 0.00 71 1010.6
20260509170003 67 152 2.0 4.0 0.00 0.00 0.00 71 1010.7
20260509165503 67 140 2.0 6.0 0.00 0.00 0.00 70 1010.8
20260509165003 68 137 1.0 5.0 0.00 0.00 0.00 70 1010.7
20260509164503 68 141 1.0 4.0 0.00 0.00 0.00 70 1010.8
20260509164003 68 145 1.0 4.0 0.00 0.00 0.00 70 1010.7
20260509163503 68 153 1.0 4.0 0.00 0.00 0.00 69 1010.9
20260509163003 68 148 1.0 6.0 0.00 0.00 0.00 69 1010.9
20260509162503 68 152 2.0 5.0 0.00 0.00 0.00 69 1010.9
20260509162003 69 142 1.0 6.0 0.00 0.00 0.00 69 1010.9
20260509161503 69 149 1.0 6.0 0.00 0.00 0.00 68 1010.9
20260509161003 69 153 1.0 4.0 0.00 0.00 0.00 68 1010.7
20260509160503 68 140 3.0 7.0 0.00 0.00 0.00 68 1010.5
20260509160003 69 166 2.0 6.0 0.00 0.00 0.00 68 1010.6
20260509155503 69 162 2.0 5.0 0.00 0.00 0.00 69 1010.5
20260509155004 69 165 2.0 5.0 0.00 0.00 0.00 70 1010.6
20260509154503 68 152 2.0 6.0 0.00 0.00 0.00 70 1010.7
20260509154003 68 152 2.0 5.0 0.00 0.00 0.00 70 1010.7
20260509153503 68 149 2.0 7.0 0.00 0.00 0.00 70 1010.9
20260509153003 69 146 2.0 9.0 0.00 0.00 0.00 70 1011.2
20260509152503 69 158 2.0 4.0 0.00 0.00 0.00 71 1010.9
20260509152003 68 157 4.0 8.0 0.00 0.00 0.00 70 1010.9
20260509151503 68 148 3.0 9.0 0.00 0.00 0.00 70 1011.1
20260509151003 68 151 3.0 9.0 0.00 0.00 0.00 70 1011.1
20260509150503 69 148 3.0 9.0 0.00 0.00 0.00 70 1011.0
20260509150003 69 149 3.0 7.0 0.00 0.00 0.00 70 1010.9
20260509145503 69 152 4.0 9.0 0.00 0.00 0.00 70 1011.0
20260509145003 69 163 4.0 11.0 0.00 0.00 0.00 70 1010.9
20260509144503 69 142 3.0 9.0 0.00 0.00 0.00 70 1011.0
20260509144003 69 151 3.0 9.0 0.00 0.00 0.00 69 1011.0
20260509143503 69 141 2.0 8.0 0.00 0.00 0.00 69 1011.1
20260509143003 70 173 2.0 4.0 0.00 0.00 0.00 69 1011.1
20260509142503 70 160 2.0 5.0 0.00 0.00 0.00 69 1011.2
20260509142003 69 151 2.0 8.0 0.00 0.00 0.00 69 1011.0
20260509141503 70 153 3.0 6.0 0.00 0.00 0.00 67 1011.0
20260509141003 71 170 2.0 6.0 0.00 0.00 0.00 67 1011.0
20260509140503 70 161 3.0 5.0 0.00 0.00 0.00 67 1011.0
20260509140004 71 149 2.0 6.0 0.00 0.00 0.00 67 1011.0
20260509135503 70 196 3.0 9.0 0.00 0.00 0.00 68 1010.9
20260509135003 70 186 2.0 6.0 0.00 0.00 0.00 68 1010.8
20260509134503 70 193 4.0 9.0 0.00 0.00 0.00 69 1011.0
20260509134003 70 187 4.0 9.0 0.00 0.00 0.00 69 1011.0
20260509133503 70 183 5.0 11.0 0.00 0.00 0.00 69 1010.8
20260509133004 70 184 4.0 9.0 0.00 0.00 0.00 68 1010.9
20260509132503 70 200 4.0 8.0 0.00 0.00 0.00 68 1010.9
20260509132003 70 195 5.0 11.0 0.00 0.00 0.00 67 1010.9
20260509131503 70 190 3.0 11.0 0.00 0.00 0.00 68 1010.9
20260509131003 70 198 3.0 10.0 0.00 0.00 0.00 68 1011.0
20260509130503 69 188 4.0 11.0 0.00 0.00 0.00 68 1011.0
20260509130003 70 198 6.0 13.0 0.00 0.00 0.00 67 1011.1
20260509125503 70 183 3.0 7.0 0.00 0.00 0.00 68 1011.1
20260509125003 69 194 4.0 11.0 0.00 0.00 0.00 68 1011.2
20260509124503 69 202 6.0 12.0 0.00 0.00 0.00 68 1011.2
20260509124003 69 188 3.0 10.0 0.00 0.00 0.00 68 1011.2
20260509123503 70 185 3.0 7.0 0.00 0.00 0.00 68 1011.3
20260509123003 70 191 4.0 9.0 0.00 0.00 0.00 67 1011.2
20260509122503 70 179 3.0 9.0 0.00 0.00 0.00 68 1011.2
20260509122003 70 174 3.0 9.0 0.00 0.00 0.00 68 1011.2
20260509121503 70 167 3.0 6.0 0.00 0.00 0.00 68 1011.2
20260509121003 70 189 3.0 9.0 0.00 0.00 0.00 68 1011.3
20260509120503 70 186 3.0 11.0 0.00 0.00 0.00 67 1011.3
20260509120003 69 178 4.0 10.0 0.00 0.00 0.00 68 1011.3
20260509115503 69 163 4.0 9.0 0.00 0.00 0.00 68 1011.3
20260509115003 69 165 4.0 10.0 0.00 0.00 0.00 68 1011.4
20260509114503 69 171 5.0 12.0 0.00 0.00 0.00 68 1011.5
20260509114003 69 170 3.0 10.0 0.00 0.00 0.00 68 1011.4
20260509113503 69 170 4.0 10.0 0.00 0.00 0.00 69 1011.5
20260509113003 69 167 5.0 12.0 0.00 0.00 0.00 68 1011.5
20260509112503 69 173 5.0 12.0 0.00 0.00 0.00 68 1011.4
20260509112003 69 165 4.0 9.0 0.00 0.00 0.00 68 1011.4
20260509111503 69 179 3.0 11.0 0.00 0.00 0.00 68 1011.4
20260509111003 68 188 4.0 14.0 0.00 0.00 0.00 68 1011.4
20260509110503 68 190 5.0 11.0 0.00 0.00 0.00 68 1011.5
20260509110003 68 193 3.0 9.0 0.00 0.00 0.00 68 1011.6
20260509105503 68 182 4.0 10.0 0.00 0.00 0.00 69 1011.4
20260509105003 68 174 3.0 11.0 0.00 0.00 0.00 69 1011.5
20260509104503 68 192 4.0 12.0 0.00 0.00 0.00 69 1011.5
20260509104003 69 164 2.0 6.0 0.00 0.00 0.00 69 1011.5
20260509103503 68 160 3.0 9.0 0.00 0.00 0.00 69 1011.7
20260509103003 68 172 2.0 8.0 0.00 0.00 0.00 69 1011.6
20260509102503 68 181 4.0 8.0 0.00 0.00 0.00 69 1011.6
20260509102003 68 202 4.0 11.0 0.00 0.00 0.00 68 1011.5
20260509101503 68 201 3.0 9.0 0.00 0.00 0.00 68 1011.3
20260509101003 68 192 2.0 7.0 0.00 0.00 0.00 68 1011.4
20260509100503 67 202 3.0 9.0 0.00 0.00 0.00 68 1011.3
20260509100004 67 197 3.0 9.0 0.00 0.00 0.00 68 1011.4
20260509095503 67 201 3.0 8.0 0.00 0.00 0.00 68 1011.4
20260509095003 67 197 3.0 8.0 0.00 0.00 0.00 68 1011.3
20260509094503 67 190 3.0 6.0 0.00 0.00 0.00 68 1011.2
20260509094003 67 185 3.0 7.0 0.00 0.00 0.00 69 1011.4
20260509093503 67 185 3.0 6.0 0.00 0.00 0.00 69 1011.3
20260509092503 66 189 3.0 6.0 0.00 0.02 0.00 70 1011.5
20260509092003 66 208 2.0 6.0 0.00 0.02 0.00 70 1011.4
20260509091503 66 207 4.0 10.0 0.00 0.02 0.00 70 1011.6
20260509091003 66 203 3.0 7.0 0.00 0.02 0.00 70 1011.5
20260509090503 66 212 3.0 8.0 0.00 0.02 0.00 70 1011.5
20260509090003 65 203 3.0 7.0 0.00 0.02 0.00 71 1011.7
20260509085503 65 203 3.0 7.0 0.00 0.02 0.00 70 1011.7
20260509085003 65 208 5.0 10.0 0.00 0.02 0.00 70 1011.6
20260509084503 65 202 4.0 11.0 0.00 0.02 0.00 70 1011.8
20260509084003 65 207 4.0 9.0 0.00 0.02 0.00 70 1011.7
20260509083503 65 201 4.0 8.0 0.00 0.02 0.00 70 1011.9
20260509083003 65 201 3.0 7.0 0.00 0.02 0.00 70 1012.0
20260509082503 65 207 3.0 9.0 0.00 0.02 0.00 70 1011.9
20260509082003 65 200 2.0 8.0 0.00 0.02 0.00 70 1011.9
20260509081503 65 212 2.0 6.0 0.00 0.04 0.00 70 1011.8
20260509081004 65 191 2.0 6.0 0.00 0.04 0.00 70 1011.9
20260509080503 65 205 2.0 5.0 0.00 0.04 0.00 70 1011.8
20260509080003 65 205 1.0 5.0 0.00 0.04 0.00 70 1011.8
20260509075503 65 222 3.0 8.0 0.00 0.04 0.00 70 1011.9
20260509075003 65 213 2.0 8.0 0.00 0.04 0.00 70 1011.9
20260509074507 65 223 1.0 5.0 0.00 0.04 0.00 71 1011.9
20260509074003 64 223 2.0 6.0 0.00 0.04 0.00 71 1011.9
20260509073503 64 217 3.0 7.0 0.00 0.06 0.00 70 1011.8
20260509073003 64 208 3.0 7.0 0.00 0.06 0.00 71 1011.9
20260509072503 64 209 4.0 13.0 0.00 0.06 0.00 70 1011.7
20260509072003 65 216 3.0 12.0 0.00 0.06 0.00 70 1011.9
20260509071503 65 217 4.0 10.0 0.00 0.06 0.00 70 1011.9
20260509071003 66 253 2.0 9.0 0.00 0.06 0.00 70 1011.8
20260509070503 65 258 2.0 5.0 0.00 0.06 0.00 71 1011.7
20260509070003 65 281 1.0 6.0 0.00 0.06 0.00 71 1011.6
20260509065503 65 259 1.0 5.0 0.00 0.06 0.00 71 1011.7
20260509065003 65 230 1.0 6.0 0.00 0.06 0.00 72 1011.7
20260509064503 64 222 2.0 9.0 0.00 0.06 0.00 72 1011.7
20260509064003 64 211 1.0 5.0 0.00 0.06 0.00 72 1011.6
20260509063503 65 230 1.0 6.0 0.00 0.06 0.00 72 1011.6
20260509063003 65 260 1.0 4.0 0.00 0.06 0.00 72 1011.6
20260509062503 64 266 1.0 4.0 0.00 0.06 0.00 72 1011.6
20260509062003 64 270 1.0 6.0 0.00 0.06 0.00 72 1011.5
20260509061504 63 292 1.0 5.0 0.00 0.06 0.00 72 1011.6
20260509061003 63 300 1.0 5.0 0.00 0.06 0.00 72 1011.6
20260509060503 63 264 1.0 4.0 0.00 0.08 0.00 72 1011.6
20260509060004 62 265 1.0 4.0 0.00 0.08 0.00 72 1011.6
20260509055503 62 292 1.0 2.0 0.00 0.08 0.00 72 1011.5
20260509055003 62 321 0.0 2.0 0.00 0.08 0.00 72 1011.4
20260509054503 61 253 1.0 3.0 0.00 0.08 0.00 72 1011.3
20260509054003 61 315 0.0 2.0 0.00 0.08 0.00 72 1011.3
20260509053503 61 321 0.0 2.0 0.00 0.08 0.00 73 1011.3
20260509053003 60 0 0.0 0.0 0.00 0.08 0.00 73 1011.3
20260509052503 60 282 0.0 2.0 0.00 0.08 0.00 73 1011.3
20260509052003 60 329 0.0 3.0 0.00 0.08 0.00 73 1011.2
20260509051503 60 255 0.0 2.0 0.00 0.08 0.00 73 1011.2
20260509051003 60 309 0.0 2.0 0.00 0.08 0.00 73 1011.2
20260509050503 60 0 0.0 0.0 0.00 0.08 0.00 73 1011.2
20260509050003 60 360 0.0 2.0 0.00 0.08 0.00 72 1011.2
20260509045503 59 342 0.0 2.0 0.00 0.08 0.00 73 1011.2
20260509045003 59 337 0.0 1.0 0.00 0.08 0.00 73 1011.2
20260509044503 59 335 0.0 3.0 0.00 0.08 0.00 73 1011.2
20260509044003 59 315 0.0 1.0 0.00 0.08 0.00 73 1011.2
20260509043503 59 283 0.0 2.0 0.00 0.08 0.00 73 1010.9
20260509043003 58 265 0.0 2.0 0.00 0.08 0.00 73 1011.0
20260509042503 58 270 0.0 1.0 0.00 0.08 0.00 73 1010.9
20260509042003 58 0 0.0 0.0 0.00 0.08 0.00 73 1011.0
20260509041503 58 0 0.0 0.0 0.00 0.10 0.00 73 1011.0
20260509041003 58 0 0.0 0.0 0.00 0.10 0.00 73 1011.1
20260509040503 58 0 0.0 0.0 0.00 0.10 0.00 73 1011.1
20260509040003 58 0 0.0 0.0 0.00 0.10 0.00 73 1011.0
20260509035503 58 0 0.0 0.0 0.00 0.10 0.00 73 1011.1
20260509035003 58 0 0.0 0.0 0.00 0.10 0.00 73 1011.0
20260509034503 58 0 0.0 0.0 0.00 0.10 0.00 73 1011.1
20260509034003 58 0 0.0 0.0 0.00 0.10 0.00 73 1011.1
20260509033503 58 0 0.0 0.0 0.00 0.10 0.00 73 1011.1
20260509033003 58 0 0.0 0.0 0.00 0.10 0.00 73 1011.1
20260509032503 58 0 0.0 0.0 0.00 0.10 0.00 73 1011.1
20260509032003 57 0 0.0 0.0 0.00 0.10 0.00 73 1011.1
20260509031503 57 22 0.0 1.0 0.00 0.10 0.00 73 1011.1
20260509031003 57 0 0.0 0.0 0.00 0.10 0.00 73 1011.1
20260509030503 57 0 0.0 0.0 0.00 0.10 0.00 73 1011.0
20260509030003 57 0 0.0 0.0 0.00 0.10 0.00 73 1010.9
20260509025503 57 0 0.0 0.0 0.00 0.10 0.00 73 1010.9
20260509025003 57 0 0.0 0.0 0.00 0.10 0.00 73 1010.8
20260509024503 58 0 0.0 0.0 0.00 0.10 0.00 73 1010.6
20260509024003 58 0 0.0 0.0 0.00 0.10 0.00 73 1010.6
20260509023503 58 0 0.0 0.0 0.00 0.10 0.00 73 1010.6
20260509023003 58 0 0.0 0.0 0.00 0.10 0.00 73 1010.6
20260509022503 58 0 0.0 0.0 0.00 0.10 0.00 73 1010.6
20260509022003 58 0 0.0 0.0 0.00 0.10 0.00 73 1010.6
20260509021503 58 0 0.0 0.0 0.00 0.10 0.00 73 1010.5
20260509021003 58 0 0.0 0.0 0.00 0.10 0.00 72 1010.5
20260509020503 59 22 0.0 2.0 0.00 0.10 0.00 73 1010.5
20260509020003 59 360 0.0 1.0 0.00 0.10 0.00 72 1010.5
20260509015503 59 0 0.0 0.0 0.00 0.10 0.00 72 1010.4
20260509015003 59 0 0.0 0.0 0.00 0.10 0.00 72 1010.3
20260509014503 59 247 0.0 1.0 0.00 0.10 0.00 72 1010.3
20260509014003 59 0 0.0 0.0 0.00 0.10 0.00 72 1010.3
20260509013503 59 259 0.0 2.0 0.00 0.10 0.00 72 1010.2
20260509013003 59 270 0.0 1.0 0.00 0.10 0.00 72 1010.3
20260509012503 59 337 0.0 1.0 0.00 0.10 0.00 72 1010.3
20260509012003 59 310 0.0 2.0 0.00 0.10 0.00 72 1010.3
20260509011503 59 0 0.0 0.0 0.00 0.10 0.00 72 1010.4
20260509011003 59 0 0.0 0.0 0.00 0.10 0.00 72 1010.4
20260509010503 59 337 0.0 4.0 0.00 0.10 0.00 72 1010.4
20260509010003 59 0 0.0 0.0 0.00 0.10 0.00 72 1010.4
20260509005503 59 360 0.0 1.0 0.00 0.10 0.00 72 1010.4
20260509005003 58 0 0.0 0.0 0.00 0.10 0.00 73 1010.6
20260509004503 58 0 0.0 0.0 0.00 0.10 0.00 72 1010.5
20260509004003 58 0 0.0 0.0 0.00 0.10 0.00 72 1010.5
20260509003503 58 0 0.0 0.0 0.00 0.10 0.00 72 1010.5
20260509003003 58 0 0.0 0.0 0.00 0.10 0.00 72 1010.5
20260509002503 58 0 0.0 0.0 0.00 0.10 0.00 72 1010.5
20260509002003 58 0 0.0 0.0 0.00 0.10 0.00 72 1010.3
20260509001503 59 0 0.0 0.0 0.00 0.10 0.00 72 1010.4
20260509001003 59 0 0.0 0.0 0.00 0.10 0.00 72 1010.3
20260509000503 59 0 0.0 0.0 0.00 0.10 0.00 72 1010.3
20260509000003 59 0 0.0 0.0 0.00 0.10 0.00 72 1010.2
20260508235503 59 312 0.0 2.0 0.00 0.10 0.00 72 1010.2
20260508235003 59 334 0.0 4.0 0.00 0.10 0.00 72 1010.2
20260508234503 59 355 0.0 1.0 0.00 0.10 0.00 72 1010.3
20260508234003 59 22 0.0 1.0 0.00 0.10 0.00 72 1010.3
20260508233503 60 18 1.0 3.0 0.00 0.10 0.00 72 1010.3
20260508233003 60 12 3.0 5.0 0.00 0.10 0.00 73 1010.3
20260508232503 60 11 3.0 5.0 0.00 0.10 0.00 72 1010.3
20260508232003 60 10 4.0 7.0 0.00 0.10 0.00 72 1010.4
20260508231503 60 17 4.0 9.0 0.00 0.10 0.00 72 1010.5
20260508231003 60 8 2.0 6.0 0.00 0.10 0.00 72 1010.6
20260508230503 60 360 2.0 6.0 0.00 0.10 0.00 72 1010.5
20260508230003 60 1 2.0 5.0 0.00 0.10 0.00 72 1010.6
20260508225503 60 355 3.0 7.0 0.00 0.10 0.00 72 1010.6
20260508225003 60 357 2.0 5.0 0.00 0.10 0.00 72 1010.6
20260508224503 60 334 3.0 6.0 0.00 0.10 0.00 72 1010.6
20260508224003 60 334 2.0 7.0 0.00 0.10 0.00 72 1010.6
20260508223503 60 359 3.0 8.0 0.00 0.10 0.00 72 1010.6
20260508223003 60 345 4.0 11.0 0.00 0.10 0.00 72 1010.6
20260508222503 60 354 2.0 7.0 0.00 0.10 0.00 73 1010.5
20260508222003 60 9 1.0 4.0 0.00 0.10 0.00 72 1010.6
20260508221503 60 337 0.0 2.0 0.00 0.10 0.00 72 1010.6
20260508221003 59 22 0.0 1.0 0.00 0.10 0.00 72 1010.6
20260508220503 59 22 0.0 1.0 0.00 0.10 0.00 72 1010.6
20260508220004 59 22 0.0 1.0 0.00 0.10 0.00 72 1010.7
20260508215503 59 22 0.0 2.0 0.00 0.10 0.10 72 1010.5
20260508215003 59 9 1.0 4.0 0.00 0.10 0.10 72 1010.4
20260508214503 60 346 0.0 2.0 0.00 0.10 0.10 72 1010.3
20260508214003 60 0 0.0 0.0 0.00 0.10 0.10 72 1010.3
20260508213503 60 22 0.0 1.0 0.00 0.10 0.10 72 1010.4
20260508213003 60 37 0.0 1.0 0.00 0.10 0.10 72 1010.3
20260508212503 60 0 0.0 0.0 0.00 0.10 0.10 72 1010.3
20260508212003 60 0 0.0 0.0 0.00 0.10 0.10 72 1010.3
20260508211503 60 22 0.0 2.0 0.00 0.10 0.10 72 1010.2
20260508211003 61 0 0.0 0.0 0.00 0.10 0.10 72 1010.1
20260508210503 61 0 0.0 0.0 0.00 0.10 0.10 72 1010.2
20260508210003 61 346 0.0 3.0 0.00 0.10 0.10 72 1010.2
20260508205503 61 347 1.0 4.0 0.00 0.10 0.10 72 1010.0
20260508205003 61 353 1.0 4.0 0.00 0.10 0.10 72 1009.9
20260508204503 61 339 1.0 5.0 0.00 0.10 0.10 72 1009.9
20260508204003 61 337 1.0 4.0 0.00 0.10 0.10 72 1009.9
20260508203503 61 350 1.0 4.0 0.00 0.10 0.10 72 1010.0
20260508203003 62 328 1.0 5.0 0.00 0.10 0.10 72 1009.9
20260508202503 62 325 3.0 8.0 0.00 0.10 0.10 72 1009.8
20260508202003 62 344 2.0 7.0 0.00 0.10 0.10 72 1009.7
20260508201503 62 350 4.0 7.0 0.00 0.10 0.10 72 1009.8
20260508201003 62 338 3.0 7.0 0.00 0.10 0.10 72 1009.8
20260508200503 62 332 3.0 6.0 0.00 0.10 0.10 72 1009.7
20260508200003 62 330 2.0 7.0 0.00 0.10 0.10 72 1009.6
20260508195503 62 330 3.0 8.0 0.00 0.10 0.10 72 1009.7
20260508195003 62 336 2.0 6.0 0.00 0.10 0.10 72 1009.7
20260508194503 62 338 3.0 7.0 0.00 0.10 0.10 72 1009.6
20260508194003 62 331 3.0 9.0 0.00 0.10 0.10 72 1009.5
20260508193503 62 348 2.0 5.0 0.00 0.10 0.10 72 1009.4
20260508193003 62 340 3.0 7.0 0.00 0.10 0.10 72 1009.4
20260508192503 62 349 3.0 8.0 0.00 0.10 0.10 72 1009.2
20260508192003 62 347 3.0 11.0 0.00 0.10 0.10 72 1009.4
20260508191503 62 343 4.0 10.0 0.00 0.10 0.10 72 1009.2
20260508191003 62 337 4.0 11.0 0.00 0.10 0.10 72 1009.0
20260508190503 62 334 5.0 10.0 0.00 0.10 0.10 72 1008.9
20260508190003 62 342 4.0 10.0 0.00 0.10 0.10 72 1009.0
20260508185503 62 332 4.0 11.0 0.00 0.10 0.10 72 1008.8
20260508185003 62 329 3.0 9.0 0.00 0.10 0.10 72 1008.7
20260508184504 63 314 1.0 7.0 0.00 0.10 0.10 72 1008.5
20260508184003 62 283 1.0 5.0 0.00 0.10 0.10 72 1008.4
20260508183503 62 275 1.0 5.0 0.00 0.10 0.10 72 1008.3
20260508183003 62 244 2.0 5.0 0.00 0.10 0.10 72 1008.3
20260508182503 62 256 1.0 7.0 0.00 0.10 0.10 72 1008.1
20260508182003 62 268 3.0 9.0 0.00 0.10 0.10 72 1008.0
20260508181503 62 270 2.0 6.0 0.00 0.10 0.10 72 1007.7
20260508181003 63 255 2.0 5.0 0.00 0.10 0.10 72 1007.8
20260508180503 63 257 1.0 4.0 0.00 0.10 0.10 72 1007.8
20260508180004 63 265 1.0 4.0 0.00 0.10 0.10 72 1007.7
20260508175503 63 249 1.0 5.0 0.00 0.10 0.10 72 1007.6